Regional Weather Roundup
Issued by NWS

Home | Current Version | Previous Version | Text Only | Print | Product List | Glossary Off
Versions: 1 2 3 4 5 6 7 8 9 10 11 12 13 14 15 16 17 18 19 20 21 22 23 24 25 26 27 28 29 30 31 32 33 34 35 36 37 38 39 40 41 42 43 44 45 46 47 48 49 50

000
ASUS43 KDTX 221210
RWRMI
MICHIGAN HOURLY REGIONAL WEATHER ROUNDUP
NATIONAL WEATHER SERVICE DETROIT/PONTIAC MI
800 AM EDT FRI AUG 22 2014

NOTE: "FAIR" INDICATES FEW OR NO CLOUDS BELOW 12,000 FEET WITH NO
SIGNIFICANT WEATHER AND/OR OBSTRUCTION TO VISIBILITY.

MIZ047>049-052>055-059>063-066>070-074>076-081>083-221300-
SOUTHEAST LOWER MICHIGAN

CITY           SKY/WX    TMP DP  RH WIND       PRES   REMARKS
ADRIAN         FOG       70  70 100 CALM      29.99S VSB 1/4
6HR MIN TEMP:  69; 6HR MAX TEMP:  71;

ALMA           CLOUDY    67  65  94 CALM      29.99R
ANN ARBOR      FOG       71  69  93 E3        29.99R VSB 1/2
BAD AXE        CLOUDY    62  62 100 CALM      30.01S FOG
6HR MIN TEMP:  54; 6HR MAX TEMP:  62;

DETROIT CITY   CLOUDY    70  65  84 CALM      30.00R
6HR MIN TEMP:  68; 6HR MAX TEMP:  71; 6HR PCP:  0.01;

DETROIT        CLOUDY    70  67  90 N6        30.00R FOG
6HR MIN TEMP:  70; 6HR MAX TEMP:  73;

FLINT          CLOUDY    69  64  84 S3        30.00R
6HR MIN TEMP:  68; 6HR MAX TEMP:  71;

GROSSE ILE     CLOUDY    72  68  88 NE5       29.98R FOG
HILLSDALE      CLOUDY    70  70 100 CALM      29.99S FOG
6HR MIN TEMP:  68; 6HR MAX TEMP:  71;

HOWELL         CLOUDY    69  68  96 E5        30.00S FOG
6HR MIN TEMP:  68; 6HR MAX TEMP:  70;


CITY           SKY/WX    TMP DP  RH WIND       PRES   REMARKS
JACKSON        CLOUDY    71  69  93 SE3       29.98S FOG
6HR MIN TEMP:  66; 6HR MAX TEMP:  71;

LAMBERTVILLE   CLOUDY    72  70  94 CALM      29.98S FOG
LANSING        FOG       70  69  97 SE5       29.98F VSB 3/4
6HR MIN TEMP:  69; 6HR MAX TEMP:  71; 6HR PCP: TRACE;

LAPEER         NOT AVBL
MASON          FOG       69  69  98 CALM      29.99S VSB 1/4
MONROE         CLOUDY    72  70  94 CALM      29.97S FOG
MT. CLEMENS    CLOUDY    68  64  87 CALM      29.99R
6HR MIN TEMP:  65; 6HR MAX TEMP:  68;

PONTIAC        CLOUDY    68  63  84 CALM      30.00R
6HR MIN TEMP:  67; 6HR MAX TEMP:  69;

PORT HOPE        N/A     64  62  93 E10       29.99R
6HR MIN TEMP:  59; 6HR MAX TEMP:  66;

PORT HURON     CLOUDY    66  64  94 CALM      30.00R
TRI CITIES     MOSUNNY   67  64  90 NE3       30.01R
6HR MIN TEMP:  65; 6HR MAX TEMP:  69;

YPSILANTI      CLOUDY    73  67  81 NE6       30.00R HAZE
6HR MIN TEMP:  73; 6HR MAX TEMP:  75;

$$
MIZ043>046-050>051-056>058-064>065-071>073-077>080-221300-
SOUTHWEST LOWER MICHIGAN

CITY           SKY/WX    TMP DP  RH WIND       PRES   REMARKS
BATTLE CREEK   CLOUDY    70  68  93 E5        29.98S FOG
6HR MIN TEMP:  70; 6HR MAX TEMP:  73;

BENTON HARBOR  PTCLDY    69  68  96 S3        29.95R FOG
6HR MIN TEMP:  67; 6HR MAX TEMP:  70;

BIG RAPIDS     CLOUDY    66  66  99 CALM      29.98S
6HR MIN TEMP:  66; 6HR MAX TEMP:  67;

COLDWATER      PTSUNNY   70  69  97 CALM      29.98R FOG
6HR MIN TEMP:  68; 6HR MAX TEMP:  70;

HOLLAND        FOG       71  69  93 E6        29.95F VSB<1/4
6HR MIN TEMP:  69; 6HR MAX TEMP:  73;

GRAND RAPIDS   FOG       70  70 100 E6        29.96S VSB 1/8
6HR MIN TEMP:  69; 6HR MAX TEMP:  71;

KALAMAZOO      FOG       70  69  97 CALM      29.97R VSB 1
6HR MIN TEMP:  69; 6HR MAX TEMP:  73;

MARSHALL       PTSUNNY   69  69  99 CALM      29.97S FOG
MUSKEGON       CLOUDY    71  68  90 E3        29.95S FOG
6HR MIN TEMP:  70; 6HR MAX TEMP:  72;

$$
MIZ016>042-221300-
NORTHERN LOWER MICHIGAN

CITY           SKY/WX    TMP DP  RH WIND       PRES   REMARKS
ALPENA         FOG       61  61 100 CALM      30.01R VSB<1/4
6HR MIN TEMP:  57; 6HR MAX TEMP:  61;

BEAVER ISLAND  CLOUDY    66  65  98 E3        29.98S
BELLAIRE       PTSUNNY   66  64  94 CALM      29.98R
6HR MIN TEMP:  65; 6HR MAX TEMP:  67;

CADILLAC       CLOUDY    66  64  91 SE3       30.00R
CHARLEVOIX     CLOUDY    68  67  97 SE3       30.01S
6HR MIN TEMP:  67; 6HR MAX TEMP:  68;

FRANKFORT      CLOUDY    69  66  88 CALM      29.97R
GAYLORD        CLOUDY    64  62  93 S5        30.01S
6HR MIN TEMP:  64; 6HR MAX TEMP:  65;

GRAYLING       PTSUNNY   64  64 100 NE5       30.02R
6HR MIN TEMP:  62; 6HR MAX TEMP:  69;

HARBOR SPRINGS CLOUDY    66  64  93 E6        29.99R
HOUGHTON LAKE  CLOUDY    63  63 100 VRB3      30.02R FOG
6HR MIN TEMP:  59; 6HR MAX TEMP:  66;

MANISTEE       CLOUDY    66  64  94 E3        29.97S
OSCODA         CLOUDY    61  61  99 N3        30.01R FOG
PELLSTON       CLOUDY    64  62  93 CALM      30.00R
6HR MIN TEMP:  59; 6HR MAX TEMP:  64;

TRAVERSE CITY  CLOUDY    69  63  81 CALM      29.96R
6HR MIN TEMP:  67; 6HR MAX TEMP:  69;

$$
MIZ007>008-015-221300-
EASTERN UPPER MICHIGAN

CITY           SKY/WX    TMP DP  RH WIND       PRES   REMARKS
KINROSS        CLOUDY    57  57 100 E5        30.01R VSB 1/4
6HR MIN TEMP:  55; 6HR MAX TEMP:  61;

MACKINAC ISLAN FOG       61  61 100 E5        30.00R VSB<1/4
6HR MIN TEMP:  59; 6HR MAX TEMP:  61;

NEWBERRY       FOG       56  56 100 CALM      30.00R VSB 1/2
6HR MIN TEMP:  53; 6HR MAX TEMP:  57;

S. S. MARIE    FOG       61  60  97 CALM      30.01R VSB<1/4
6HR MIN TEMP:  59; 6HR MAX TEMP:  62;

$$
MIZ004>006-011>014-085-221300-
CENTRAL UPPER MICHIGAN

CITY           SKY/WX    TMP DP  RH WIND       PRES   REMARKS
MANISTIQUE     CLOUDY    64  62  94 CALM      29.98R
6HR MIN TEMP:  61; 6HR MAX TEMP:  64;

ESCANABA       CLOUDY    64  61  88 E5        29.98R
6HR MIN TEMP:  63; 6HR MAX TEMP:  64;

MENOMINEE      CLOUDY    66  64  94 CALM      29.95S
6HR MIN TEMP:  66; 6HR MAX TEMP:  66;

SAWYER-GWINN   CLOUDY    64  59  82 CALM      30.00R
$$
MIZ001>003-009>011-084-221300-
WESTERN UPPER MICHIGAN

CITY           SKY/WX    TMP DP  RH WIND       PRES   REMARKS
IRON MOUNTAIN  CLOUDY    64  62  93 CALM      29.96S
6HR MIN TEMP:  63; 6HR MAX TEMP:  64; 6HR PCP: TRACE;

HOUGHTON       CLOUDY    62  59  90 E7        29.98R
6HR MIN TEMP:  57; 6HR MAX TEMP:  61;

COPPER HARBOR    N/A     56  53  90 CALM      29.98R
6HR MIN TEMP:  52; 6HR MAX TEMP:  61;

IRONWOOD       CLOUDY    64  64 100 E5        29.93R
6HR MIN TEMP:  64; 6HR MAX TEMP:  66;

$$

ABBREVIATIONS USED IN REMARKS
   TC - TEMPERATURE IN CELSIUS
  WCI - WIND CHILL INDEX
   HX - HEAT INDEX
  VSB - VISIBILITY



USA.gov is the U.S. government's official web portal to all federal, state and local government web resources and services.